Terminal Aerodrome Forecast
Issued by NWS Wakefield, VA

Home | Current Version | Previous Version | Text Only | Print | Product List | Glossary On
Versions: 1 2 3 4 5 6 7 8 9 10 11 12 13 14 15 16 17 18 19 20
000
FTUS41 KAKQ 032320
TAFORF
TAF
KORF 032320Z 0400/0424 15005KT P6SM SKC
     FM041400 23010KT P6SM SCT070
     FM042200 20008KT P6SM SKC=

USA.gov is the U.S. government's official web portal to all federal, state and local government web resources and services.